Other Public Products
Issued by NWS Grand Forks, ND

Home | Current Version | Previous Version | Text Only | Print | Product List | Glossary On
Versions: 1 2 3 4 5 6 7 8 9 10 11 12 13 14 15 16 17 18 19 20 21 22 23 24 25 26 27 28 29 30 31 32 33 34 35 36 37 38 39 40 41 42 43 44 45 46 47 48 49 50
000
FPUS83 KFGF 220931
OPUFGF
PRAIRIE TO PINES WEATHER ROUNDUP
NATIONAL WEATHER SERVICE EASTERN NORTH DAKOTA/GRAND FORKS ND
300 AM CST WED FEB 22 2017

 **SATELLITE DATA USED TO AUGMENT SKY COVER AT AUTOMATED STATIONS**
 *****  WEATHER ACROSS EASTERN NORTH DAKOTA  *****

CITY           SKY/WX    TMP DP  RH WIND       PRES   REMARKS
GRAND FORKS    CLOUDY    32  28  85 N13       29.68F FOG     WCI  22
GRAND FORKS AF DRIZZLE   32  32 100 N10       29.69S FOG     WCI  24
GRAND CITY NWS NOT AVBL
BUXTON         NOT AVBL
DEVILS LAKE    LGT RAIN  33  32  96 NE8       29.67R FOG
FARGO          FOG       34  33  96 N12       29.65R VSB 1/4
WAHPETON ARPT    N/A     32  32 100 CALM      29.64R
$$

 *****  WEATHER ACROSS CENTRAL AND WESTERN NORTH DAKOTA  *****

CITY           SKY/WX    TMP DP  RH WIND       PRES   REMARKS
JAMESTOWN      FAIR      34  32  92 NW7       29.64R
BISMARCK       FAIR      31  30  96 CALM      29.64F FOG
MINOT          CLOUDY    34  32  92 N15       29.68F FOG     WCI  24
MINOT AFB      LGT RAIN  32  32 100 N12       29.70R WCI  23
GARRISON         N/A     33  31  92 NE9       29.67F
WILLISTON      LGT SNOW  33  32  96 N9        29.73R FOG
DICKINSON      CLOUDY    32  31  96 NW9       29.66R WCI  24
HETTINGER      CLOUDY    38  35  89 CALM      29.64F
$$

 *****  OTHER OBSERVATIONS NORTHEAST NORTH DAKOTA  *****

CITY           SKY/WX    TMP DP  RH WIND       PRES   REMARKS
WALHALLA       NOT AVBL
LANGDON        NOT AVBL
CAVALIER       CLOUDY    32  32 100 N8        29.72R FOG     WCI  25
GRAFTON        CLOUDY    32  32 100 N9        29.72R FOG     WCI  24
CANDO          NOT AVBL
FORT TOTTEN      N/A     32  32 100 NE5       29.95S
ROLLA          FLURRIES  32  32 100 N14       29.70S WCI  22
RUGBY            N/A     32  32 100 N8        29.67F WCI  25
 ***** THE ABOVE OBSERVATIONS ARE NON NWS ARE NOT QUALITY
        CONTROLLED AND MAY MIS-REPORT RAIN FOR SNOW...
$$

 *****  OTHER OBSERVATIONS SOUTHEAST NORTH DAKOTA *****

CITY           SKY/WX    TMP DP  RH WIND       PRES   REMARKS
COOPERSTOWN    CLOUDY    34  34 100 N5        29.65F
VALLEY CITY    FAIR      32  32 100 N8        29.65F WCI  25
OAKES          NOT AVBL
GWINNER        FAIR      36  36 100 N6        29.63F
SHEYENNE NWR     N/A     33  33  99 W5        29.95S
BUFFALO        NOT AVBL
WYNDMERE         N/A     36  36 100 NW5         N/A
 ***** THE ABOVE OBSERVATIONS ARE NON NWS ARE NOT QUALITY
       CONTROLLED AND MAY MIS-REPORT RAIN FOR SNOW...
$$

  *****  WEATHER ACROSS NORTHERN MINNESOTA  *****

CITY           SKY/WX    TMP DP  RH WIND       PRES   REMARKS
FLAG ISLAND    CLOUDY    34  30  86 N6        29.66F
WARROAD        FAIR      32  28  86 N5        29.67F
ROSEAU         FAIR      28  25  86 NE3       29.66F FOG
HALLOCK        MIX PCPN  34  32  93 NE5       29.69R
THF RVR FALLS  FAIR      32  31  96 NW3       29.66S FOG
HALSTAD          N/A     32  32  99 NE5         N/A
FOSSTON        FOG       32  30  93 CALM      29.65R VSB 1/2
BAUDETTE       MOCLDY    32  30  92 CALM      29.65F
WASKISH        CLOUDY    34  34 100 CALM      29.65S
CROOKSTON      CLOUDY    32  32 100 N8        29.70R FOG     WCI  25
$$
  *****  WEATHER ACROSS CENTRAL AND WEST MINNESOTA  *****

CITY           SKY/WX    TMP DP  RH WIND       PRES   REMARKS
BEMIDJI        CLOUDY    34  34 100 N7        29.62F FOG
PARK RAPIDS    CLOUDY    34  31  88 SE5       29.61F
WADENA         MOCLDY    34  34 100 NE5       29.59F FOG
DETROIT LAKES  FAIR      34  34 100 CALM      29.63S
MOORHEAD       FOG       32  32 100 N7        29.66R VSB 3/4
FERGUS FALLS   FAIR      37  36  93 NE5       29.66R
ELBOW LAKE     FAIR      40  38  93 SE6       29.60F
MORRIS MN      FAIR      37  37 100 CALM      29.58S
STAPLES        MOCLDY    34  34 100 NE3       29.59F FOG
WHEATON        FAIR      36  34  93 NW3       29.63R FOG
$$
  *****  WEATHER ELSEWHERE ACROSS MINNESOTA  *****

CITY           SKY/WX    TMP DP  RH WIND       PRES   REMARKS
DULUTH         FAIR      34  33  96 NW6       29.63R
INTRNTL FALLS  CLOUDY    32  30  92 NE3       29.65S
ELY            CLOUDY    34  32  93 CALM      29.63S
CLOQUET        FAIR      36  34  93 NW5       29.62F
BRAINERD       MOCLDY    31  30  96 NE3       29.62F
HIBBING        FAIR      30  30 100 CALM      29.63S FOG
ALEXANDRIA     FAIR      37  36  96 E7        29.59F
SAINT CLOUD    FOG       33  33 100 SW3       29.64R VSB 1/2
MINNEAPOLIS    MOCLDY    41  39  93 CALM      29.65F
$$

  *****  WEATHER ACROSS SOUTH DAKOTA  *****

CITY           SKY/WX    TMP DP  RH WIND       PRES   REMARKS
SIOUX FALLS    FAIR      40  37  89 S6        29.63R
BROOKINGS      FAIR      41  37  86 SE3       29.59F
WATERTOWN      FAIR      42  40  92 NW3       29.59S
HURON          FAIR      40  39  97 S3        29.60S
SISSETON         N/A     36  35  96 S5        29.58F
ABERDEEN       FAIR      37  33  85 N5        29.61R
MITCHELL       FAIR      41  35  79 S7        29.62S
PIERRE         CLOUDY    43  37  79 W12       29.64F
MOBRIDGE       FAIR      39  33  79 N6        29.59F
RAPID CITY     FAIR      43  36  76 W8        29.68F
$$

  *****  SOME WEATHER IN NEARBY STATES *****

CITY           SKY/WX    TMP DP  RH WIND       PRES   REMARKS
GLASGOW MT     LGT SNOW  32  30  92 VRB6      29.75S FOG
GREAT FALLS MT CLOUDY    32  31  96 W9        29.81R WCI  24
CHEYENNE WY    FAIR      38  29  70 NW17G26   29.90R
SCOTTSBLUFF NE FAIR      44  33  65 NW16      29.85R
OMAHA NE       FAIR      47  35  63 SE12      29.72F
DES MOINES IA  FAIR      52  32  46 S10       29.74F
DAVENPORT IA   FAIR      52  50  93 SW10      29.81F FOG
CHICAGO IL     FOG       55  53  93 S10       29.82S VSB 3/4
EAU CLAIRE WI  FAIR      38  37  97 SW5       29.65F
LA CROSSE WI   FAIR      47  37  68 S9        29.70F
$$

  *****  SOME NATIONAL WEATHER *****

CITY           SKY/WX    TMP DP  RH WIND       PRES   REMARKS
LA GUARDIA NY  CLOUDY    45  35  68 SW7       30.08R
RALEIGH NC     MOCLDY    52  47  83 SE6       30.03F
ATLANTA GA     LGT RAIN  61  60  97 E6        29.88S
NEW ORLEANS LA MOCLDY    58  56  93 NW5       29.81F
OKLAHOMA CITY  FAIR      40  36  86 SW5       29.89F
ALBUQUERQUE NM FAIR      46  33  60 SE10      30.18F
SALT LAKE CITY CLOUDY    36  34  92 S7        30.07F
LOS ANGELES CA FAIR      57  56  96 W9        30.19F
BOISE ID       FAIR      36  28  73 CALM      30.05S
SEATTLE WA     CLOUDY    39  36  89 S7        30.16R
$$

*** WEATHER ACROSS MANITOBA...SASKATCHEWAN AND ONTARIO ***
                ***ONTARIO***

CITY           SKY/WX    TMP DP  RH WIND       PRES   REMARKS
GERALDTON      MOCLDY    27  27 100 CALM      29.65F
THUNDER BAY    CLOUDY    30  30 100 NW2       29.63F
SIOUX LOOKOUT  CLOUDY    32  30  93 NW2       29.66S
TORONTO        FOG       37  37 100 CALM      29.90F VSB 1/8
BIG TROUT LK   FLURRIES  25  23  93 W6        29.55F WCI  18
PICKLE LAKE    NOT AVBL
DRYDEN         CLOUDY    32  30  93 N3        29.66F
KENORA         MOCLDY    30  30 100 N5        29.67S
$$
                *** MANITOBA***

CITY           SKY/WX    TMP DP  RH WIND       PRES   REMARKS
BRANDON        CLOUDY    34  28  80 NE12      29.75R
DAUPHIN        CLOUDY    32  28  86 NW5       29.78S
ISLAND LAKE    FLURRIES  25  23  93 W10       29.61S WCI  15
PILOT MOUND      N/A     32  30  93 N8          N/A  WCI  25
THE PAS        CLOUDY    25  16  68 NW14      29.75R WCI  13
THOMPSON       FLURRIES   3  -2  78 NW10      29.72R WCI -12
WINNIPEG       CLOUDY    32  30  93 NE10      29.73S WCI  24
LYNN LAKE      FLURRIES   0  -4  85 N7        29.77S WCI -13
CHURCHILL      LGT SNOW   1  -2  85 NE23G30   29.75R VSB 3/4 WCI -21
GILLAM         LGT SNOW   5   0  78 NW13      29.64R FOG     WCI -12
$$
                ***SASKATCHEWAN***

CITY           SKY/WX    TMP DP  RH WIND       PRES   REMARKS
ESTEVAN        CLOUDY    32  30  93 N12       29.75S FOG     WCI  23
KINDERSLEY     CLOUDY    28  28 100 SW5       29.83R WCI  23
LLOYDMINSTER   CLOUDY    28  25  86 N10       29.83R WCI  19
PRINCE ALBERT  FLURRIES  30  25  80 NE6       29.80R WCI  24
REGINA         CLOUDY    28  23  80 N8        29.81R WCI  20
YORKTON        CLOUDY    28  25  86 W6        29.79R WC



USA.gov is the U.S. government's official web portal to all federal, state and local government web resources and services.